Epoch 2020 Feb. 1.0 TT = JDT 2458880.5 T 2020 Jan. 26.68392 TT Rudenko q 2.7691670 (2000.0) P Q z +0.0143354 Peri. 143.75765 -0.76963127 -0.63323042 +/-0.0000000 Node 354.32153 +0.18275323 -0.09576034 e 0.9603029 Incl. 55.73559 +0.61177525 -0.76801640 From 97 observations 2020 Jan. 19-Feb. 20, mean residual 0".4.
m1 = 14.0 + 5 logΔ + 10.0 log r